sat.trackr.live / text

‹ back to catalog

STARLINK-1281

NORAD 45370 · 2020-019L

PAYLOAD ACTIVE UNKNOWN

§ Identity

Operator
Country
US
Launch date
2020-03-18
Launch site
AFETR
Launch vehicle
Mass (kg)
RCS (m²)

Purposes: comms

External: N2YO · Heavens-Above · Gunter

§ Orbital elements

Epoch: 2026-05-24T18:34:19.890048Z

Period
93.90 min
Inclination
53.1561°
Eccentricity
0.0004912
Mean motion
15.33549258 rev/d
Perigee alt
461.9 km
Apogee alt
468.6 km
Semi-major
6,843.4 km
B*
8.9779e-4
RAAN
171.2902°
Arg perigee
24.2836°
Mean anomaly
335.8397°
Rev number
34,141

§ Raw data

STARLINK-12811 45370U 20019L   26144.77384132  .00029277  00000+0  89779-3 0  99922 45370  53.1561 171.2902 0004912  24.2836 335.8397 15.33549258341411

JSON: /api/v1/satellites/45370 · /tle

For live sub-satellite position, see the globe view (requires WebGL).

§ Visibility from observer

Set your observer location to see the next 7 days of passes ≥ 10°. The values pass through the URL so the page stays shareable.

No JS? Fill the form by hand. The geolocation button needs JavaScript.